Time,TemperatureF,DewpointF,PressureIn,WindDirection,WindDirectionDegrees,WindSpeedMPH,WindSpeedGustMPH,Humidity,HourlyPrecipIn,Conditions,Clouds,dailyrainin,SoftwareType,DateUTC
2013-02-06 00:02:00,18.0,15.0,29.90,SE,146,0.0,0.0,89,-99.99,,,-99.99,,2013-02-06 05:02:00,
2013-02-06 00:12:00,18.0,15.0,29.90,SE,146,0.0,0.0,89,-99.99,,,-99.99,,2013-02-06 05:12:00,
2013-02-06 00:22:00,18.0,15.0,29.89,SE,146,0.0,0.0,89,-99.99,,,-99.99,,2013-02-06 05:22:00,
2013-02-06 00:32:00,18.0,15.0,29.89,SE,146,0.0,3.0,89,-99.99,,,-99.99,,2013-02-06 05:32:00,
2013-02-06 00:41:00,18.0,15.0,29.89,SE,146,0.0,3.0,89,-99.99,,,-99.99,,2013-02-06 05:41:00,
2013-02-06 00:53:00,18.0,16.0,29.89,SE,146,0.0,3.0,90,-99.99,,,-99.99,,2013-02-06 05:53:00,
2013-02-06 01:01:00,18.0,16.0,29.89,SE,146,0.0,3.0,90,-99.99,,,-99.99,,2013-02-06 06:01:00,
2013-02-06 01:11:00,18.0,16.0,29.89,SE,146,0.0,3.0,90,-99.99,,,-99.99,,2013-02-06 06:11:00,
2013-02-06 01:22:00,19.0,17.0,29.88,SSE,160,2.0,4.0,90,-99.99,,,-99.99,,2013-02-06 06:22:00,
2013-02-06 01:32:00,20.0,18.0,29.87,SSE,160,0.0,4.0,90,-99.99,,,-99.99,,2013-02-06 06:32:00,
2013-02-06 01:42:00,20.0,18.0,29.87,SSE,160,0.0,4.0,90,-99.99,,,-99.99,,2013-02-06 06:42:00,
2013-02-06 01:52:00,20.0,18.0,29.87,SSE,160,1.0,3.0,90,-99.99,,,-99.99,,2013-02-06 06:52:00,
2013-02-06 02:01:00,20.0,18.0,29.87,SSE,160,0.0,0.0,90,-99.99,,,-99.99,,2013-02-06 07:01:00,
2013-02-06 02:11:00,20.0,18.0,29.87,SSE,160,0.0,0.0,90,-99.99,,,-99.99,,2013-02-06 07:11:00,
2013-02-06 02:22:00,20.0,18.0,29.87,SSE,160,0.0,0.0,90,-99.99,,,-99.99,,2013-02-06 07:22:00,
2013-02-06 02:32:00,19.0,17.0,29.87,SSE,160,0.0,0.0,90,-99.99,,,-99.99,,2013-02-06 07:32:00,
2013-02-06 02:42:00,19.0,17.0,29.87,SSE,160,0.0,0.0,90,-99.99,,,-99.99,,2013-02-06 07:42:00,
2013-02-06 02:52:00,19.0,17.0,29.86,SSE,160,0.0,0.0,90,-99.99,,,-99.99,,2013-02-06 07:52:00,
2013-02-06 03:01:00,19.0,17.0,29.86,SSE,160,0.0,0.0,91,-99.99,,,-99.99,,2013-02-06 08:01:00,
2013-02-06 03:11:00,19.0,17.0,29.86,SSE,160,0.0,0.0,91,-99.99,,,-99.99,,2013-02-06 08:11:00,
2013-02-06 03:21:00,19.0,17.0,29.86,SSE,160,0.0,0.0,91,-99.99,,,-99.99,,2013-02-06 08:21:00,
2013-02-06 03:31:00,19.0,17.0,29.86,SSE,160,0.0,0.0,91,-99.99,,,-99.99,,2013-02-06 08:31:00,
2013-02-06 03:42:00,19.0,17.0,29.86,SSE,160,0.0,0.0,91,-99.99,,,-99.99,,2013-02-06 08:42:00,
2013-02-06 03:53:00,19.0,17.0,29.87,SSE,160,2.0,3.0,91,-99.99,,,-99.99,,2013-02-06 08:53:00,
2013-02-06 04:02:00,20.0,18.0,29.87,West,279,4.0,8.0,92,-99.99,,,-99.99,,2013-02-06 09:02:00,
2013-02-06 04:11:00,20.0,18.0,29.87,West,279,4.0,8.0,92,-99.99,,,-99.99,,2013-02-06 09:11:00,
2013-02-06 04:21:00,21.0,19.0,29.86,WSW,249,2.0,5.0,92,-99.99,,,-99.99,,2013-02-06 09:21:00,
2013-02-06 04:32:00,21.0,19.0,29.88,West,269,3.0,6.0,93,-99.99,,,-99.99,,2013-02-06 09:32:00,
2013-02-06 04:42:00,21.0,19.0,29.88,West,269,3.0,6.0,93,-99.99,,,-99.99,,2013-02-06 09:42:00,
2013-02-06 04:52:00,21.0,19.0,29.88,West,269,2.0,6.0,93,-99.99,,,-99.99,,2013-02-06 09:52:00,
2013-02-06 05:01:00,21.0,19.0,29.88,West,276,3.0,6.0,92,-99.99,,,-99.99,,2013-02-06 10:01:00,
2013-02-06 05:11:00,21.0,19.0,29.88,West,276,3.0,6.0,92,-99.99,,,-99.99,,2013-02-06 10:11:00,
2013-02-06 05:21:00,21.0,19.0,29.88,WSW,257,4.0,6.0,92,-99.99,,,-99.99,,2013-02-06 10:21:00,
2013-02-06 05:31:00,21.0,19.0,29.89,WSW,257,1.0,4.0,93,-99.99,,,-99.99,,2013-02-06 10:31:00,
2013-02-06 05:42:00,21.0,19.0,29.89,WSW,257,1.0,4.0,93,-99.99,,,-99.99,,2013-02-06 10:42:00,
2013-02-06 05:52:00,21.0,19.0,29.91,West,271,4.0,7.0,93,-99.99,,,-99.99,,2013-02-06 10:52:00,
2013-02-06 06:01:00,21.0,19.0,29.91,WNW,289,3.0,7.0,93,-99.99,,,-99.99,,2013-02-06 11:01:00,
2013-02-06 06:11:00,21.0,19.0,29.91,WNW,289,3.0,7.0,93,-99.99,,,-99.99,,2013-02-06 11:11:00,
2013-02-06 06:22:00,20.0,18.0,29.91,NW,306,7.0,15.0,93,-99.99,,,-99.99,,2013-02-06 11:22:00,
2013-02-06 06:32:00,20.0,18.0,29.91,West,276,4.0,10.0,93,-99.99,,,-99.99,,2013-02-06 11:32:00,
2013-02-06 06:42:00,20.0,18.0,29.91,West,276,4.0,10.0,93,-99.99,,,-99.99,,2013-02-06 11:42:00,
2013-02-06 06:53:00,20.0,18.0,29.91,WNW,283,5.0,12.0,92,-99.99,,,-99.99,,2013-02-06 11:53:00,
2013-02-06 07:02:00,20.0,18.0,29.92,NW,318,5.0,13.0,92,-99.99,,,-99.99,,2013-02-06 12:02:00,
2013-02-06 07:12:00,20.0,18.0,29.92,NW,318,5.0,13.0,92,-99.99,,,-99.99,,2013-02-06 12:12:00,
2013-02-06 07:22:00,20.0,18.0,29.93,WSW,257,4.0,10.0,92,-99.99,,,-99.99,,2013-02-06 12:22:00,
2013-02-06 07:32:00,20.0,18.0,29.93,WSW,257,4.0,10.0,92,-99.99,,,-99.99,,2013-02-06 12:32:00,
2013-02-06 07:42:00,20.0,18.0,29.93,WSW,257,4.0,10.0,92,-99.99,,,-99.99,,2013-02-06 12:42:00,
2013-02-06 07:52:00,20.0,18.0,29.94,West,276,5.0,11.0,92,-99.99,,,-99.99,,2013-02-06 12:52:00,
2013-02-06 08:01:00,20.0,18.0,29.95,West,271,6.0,9.0,92,-99.99,,,-99.99,,2013-02-06 13:01:00,
2013-02-06 08:12:00,20.0,18.0,29.95,West,271,6.0,9.0,92,-99.99,,,-99.99,,2013-02-06 13:12:00,
2013-02-06 08:22:00,20.0,18.0,29.96,WNW,285,2.0,7.0,92,-99.99,,,-99.99,,2013-02-06 13:22:00,
2013-02-06 08:32:00,21.0,19.0,29.96,West,279,6.0,10.0,92,-99.99,,,-99.99,,2013-02-06 13:32:00,
2013-02-06 08:42:00,21.0,19.0,29.96,West,279,6.0,10.0,92,-99.99,,,-99.99,,2013-02-06 13:42:00,
2013-02-06 08:52:00,21.0,19.0,29.96,WSW,257,4.0,7.0,92,-99.99,,,-99.99,,2013-02-06 13:52:00,
2013-02-06 09:02:00,21.0,19.0,29.96,West,260,7.0,12.0,91,-99.99,,,-99.99,,2013-02-06 14:02:00,
2013-02-06 09:11:00,21.0,19.0,29.97,WSW,254,4.0,13.0,90,-99.99,,,-99.99,,2013-02-06 14:11:00,
2013-02-06 09:22:00,21.0,19.0,29.97,WSW,254,4.0,13.0,90,-99.99,,,-99.99,,2013-02-06 14:22:00,
2013-02-06 09:32:00,22.0,19.0,29.97,WSW,249,4.0,11.0,89,-99.99,,,-99.99,,2013-02-06 14:32:00,
2013-02-06 09:42:00,22.0,19.0,29.96,WSW,245,10.0,17.0,87,-99.99,,,-99.99,,2013-02-06 14:42:00,
2013-02-06 09:52:00,22.0,19.0,29.96,WSW,245,10.0,17.0,87,-99.99,,,-99.99,,2013-02-06 14:52:00,
2013-02-06 10:02:00,24.0,20.0,29.96,West,264,9.0,15.0,85,-99.99,,,-99.99,,2013-02-06 15:02:00,
2013-02-06 10:11:00,23.0,19.0,29.97,WNW,290,9.0,19.0,85,-99.99,,,-99.99,,2013-02-06 15:11:00,
2013-02-06 10:21:00,23.0,19.0,29.97,WNW,290,9.0,19.0,85,-99.99,,,-99.99,,2013-02-06 15:21:00,
2013-02-06 10:31:00,23.0,19.0,29.98,SW,236,11.0,18.0,84,-99.99,,,-99.99,,2013-02-06 15:31:00,
2013-02-06 10:42:00,24.0,19.0,29.98,West,281,10.0,19.0,82,-99.99,,,-99.99,,2013-02-06 15:42:00,
2013-02-06 10:52:00,24.0,19.0,29.98,West,281,10.0,19.0,82,-99.99,,,-99.99,,2013-02-06 15:52:00,
2013-02-06 11:01:00,24.0,19.0,29.98,West,281,10.0,19.0,82,-99.99,,,-99.99,,2013-02-06 16:01:00,
2013-02-06 11:11:00,24.0,19.0,29.98,West,281,10.0,19.0,82,-99.99,,,-99.99,,2013-02-06 16:11:00,
2013-02-06 11:21:00,25.0,19.0,29.98,NW,312,13.0,21.0,77,-99.99,,,-99.99,,2013-02-06 16:21:00,
2013-02-06 11:32:00,26.0,18.0,29.97,SW,224,13.0,24.0,72,-99.99,,,-99.99,,2013-02-06 16:32:00,
2013-02-06 11:42:00,26.0,18.0,29.97,SW,224,13.0,24.0,72,-99.99,,,-99.99,,2013-02-06 16:42:00,
2013-02-06 11:52:00,26.0,18.0,29.96,NNW,334,8.0,24.0,72,-99.99,,,-99.99,,2013-02-06 16:52:00,
2013-02-06 12:02:00,26.0,18.0,29.96,NW,307,12.0,20.0,71,-99.99,,,-99.99,,2013-02-06 17:02:00,
2013-02-06 12:11:00,26.0,19.0,29.97,WNW,296,13.0,24.0,74,-99.99,,,-99.99,,2013-02-06 17:11:00,
2013-02-06 12:22:00,26.0,19.0,29.97,WNW,296,13.0,24.0,74,-99.99,,,-99.99,,2013-02-06 17:22:00,
2013-02-06 12:32:00,25.0,19.0,29.97,NW,305,12.0,25.0,79,-99.99,,,-99.99,,2013-02-06 17:32:00,
2013-02-06 12:42:00,26.0,19.0,29.97,NW,307,16.0,28.0,75,-99.99,,,-99.99,,2013-02-06 17:42:00,
2013-02-06 12:52:00,26.0,19.0,29.97,NW,307,16.0,28.0,75,-99.99,,,-99.99,,2013-02-06 17:52:00,
2013-02-06 13:02:00,27.0,19.0,29.97,West,266,11.0,24.0,71,-99.99,,,-99.99,,2013-02-06 18:02:00,
2013-02-06 13:11:00,25.0,17.0,29.98,NNW,345,12.0,26.0,72,-99.99,,,-99.99,,2013-02-06 18:11:00,
2013-02-06 13:23:00,25.0,17.0,29.98,NNW,345,12.0,26.0,72,-99.99,,,-99.99,,2013-02-06 18:23:00,
2013-02-06 13:32:00,25.0,18.0,29.99,NW,321,10.0,19.0,73,-99.99,,,-99.99,,2013-02-06 18:32:00,
2013-02-06 13:42:00,25.0,18.0,29.99,NW,321,10.0,19.0,73,-99.99,,,-99.99,,2013-02-06 18:42:00,
2013-02-06 13:52:00,24.0,17.0,30.00,WNW,286,13.0,20.0,73,-99.99,,,-99.99,,2013-02-06 18:52:00,
2013-02-06 14:01:00,25.0,15.0,30.00,NNW,328,8.0,26.0,66,-99.99,,,-99.99,,2013-02-06 19:01:00,
2013-02-06 14:11:00,25.0,15.0,30.00,NNW,328,8.0,26.0,66,-99.99,,,-99.99,,2013-02-06 19:11:00,
2013-02-06 14:21:00,26.0,14.0,30.00,NW,326,14.0,31.0,59,-99.99,,,-99.99,,2013-02-06 19:21:00,
2013-02-06 14:32:00,27.0,13.0,30.00,NW,325,13.0,22.0,56,-99.99,,,-99.99,,2013-02-06 19:32:00,
2013-02-06 14:42:00,27.0,13.0,30.00,NW,325,13.0,22.0,56,-99.99,,,-99.99,,2013-02-06 19:42:00,
2013-02-06 14:52:00,26.0,13.0,30.01,SW,217,9.0,29.0,58,-99.99,,,-99.99,,2013-02-06 19:52:00,
2013-02-06 15:01:00,26.0,12.0,30.01,West,272,7.0,22.0,54,-99.99,,,-99.99,,2013-02-06 20:01:00,
2013-02-06 15:11:00,25.0,11.0,30.01,WNW,287,9.0,30.0,55,-99.99,,,-99.99,,2013-02-06 20:11:00,
2013-02-06 15:21:00,25.0,11.0,30.01,WNW,287,9.0,30.0,55,-99.99,,,-99.99,,2013-02-06 20:21:00,
2013-02-06 15:32:00,25.0,9.0,30.04,WNW,300,7.0,22.0,51,-99.99,,,-99.99,,2013-02-06 20:32:00,
2013-02-06 15:42:00,25.0,9.0,30.04,WNW,300,7.0,22.0,51,-99.99,,,-99.99,,2013-02-06 20:42:00,
2013-02-06 15:52:00,24.0,9.0,30.06,West,269,16.0,26.0,52,-99.99,,,-99.99,,2013-02-06 20:52:00,
2013-02-06 16:02:00,24.0,8.0,30.07,WSW,257,10.0,24.0,49,-99.99,,,-99.99,,2013-02-06 21:02:00,
2013-02-06 16:11:00,24.0,8.0,30.07,WSW,257,10.0,24.0,49,-99.99,,,-99.99,,2013-02-06 21:11:00,
2013-02-06 16:21:00,23.0,5.0,30.07,NW,318,15.0,25.0,46,-99.99,,,-99.99,,2013-02-06 21:21:00,
2013-02-06 16:32:00,23.0,6.0,30.09,West,262,9.0,28.0,48,-99.99,,,-99.99,,2013-02-06 21:32:00,
2013-02-06 16:42:00,23.0,6.0,30.09,West,262,9.0,28.0,48,-99.99,,,-99.99,,2013-02-06 21:42:00,
2013-02-06 16:51:00,22.0,3.0,30.11,West,279,14.0,25.0,43,-99.99,,,-99.99,,2013-02-06 21:51:00,
2013-02-06 17:01:00,22.0,3.0,30.11,West,281,10.0,18.0,43,-99.99,,,-99.99,,2013-02-06 22:01:00,
2013-02-06 17:11:00,22.0,3.0,30.11,West,281,10.0,18.0,43,-99.99,,,-99.99,,2013-02-06 22:11:00,
2013-02-06 17:21:00,21.0,4.0,30.12,NNW,331,7.0,25.0,46,-99.99,,,-99.99,,2013-02-06 22:21:00,
2013-02-06 17:31:00,21.0,4.0,30.14,WNW,300,7.0,18.0,46,-99.99,,,-99.99,,2013-02-06 22:31:00,
2013-02-06 17:42:00,21.0,4.0,30.14,WNW,300,7.0,18.0,46,-99.99,,,-99.99,,2013-02-06 22:42:00,
2013-02-06 17:52:00,20.0,1.0,30.15,WSW,248,16.0,25.0,42,-99.99,,,-99.99,,2013-02-06 22:52:00,
2013-02-06 18:01:00,19.0,1.0,30.16,West,259,9.0,18.0,44,-99.99,,,-99.99,,2013-02-06 23:01:00,
2013-02-06 18:11:00,19.0,1.0,30.16,West,259,9.0,18.0,44,-99.99,,,-99.99,,2013-02-06 23:11:00,
2013-02-06 18:21:00,19.0,0.0,30.16,West,271,11.0,21.0,43,-99.99,,,-99.99,,2013-02-06 23:21:00,
2013-02-06 18:32:00,18.0,-2.0,30.18,WNW,295,14.0,23.0,40,-99.99,,,-99.99,,2013-02-06 23:32:00,
2013-02-06 18:42:00,18.0,-2.0,30.18,WNW,295,14.0,23.0,40,-99.99,,,-99.99,,2013-02-06 23:42:00,
2013-02-06 18:52:00,18.0,-2.0,30.18,NW,306,11.0,20.0,40,-99.99,,,-99.99,,2013-02-06 23:52:00,
2013-02-06 19:02:00,18.0,-3.0,30.20,West,271,11.0,19.0,39,-99.99,,,-99.99,,2013-02-07 00:02:00,
2013-02-06 19:11:00,18.0,-3.0,30.20,West,271,11.0,19.0,39,-99.99,,,-99.99,,2013-02-07 00:11:00,
2013-02-06 19:21:00,18.0,-2.0,30.20,NW,314,7.0,18.0,40,-99.99,,,-99.99,,2013-02-07 00:21:00,
2013-02-06 19:32:00,17.0,-2.0,30.20,West,274,8.0,16.0,42,-99.99,,,-99.99,,2013-02-07 00:32:00,
2013-02-06 19:42:00,17.0,-2.0,30.20,West,274,8.0,16.0,42,-99.99,,,-99.99,,2013-02-07 00:42:00,
2013-02-06 19:52:00,17.0,-2.0,30.22,WSW,250,11.0,20.0,43,-99.99,,,-99.99,,2013-02-07 00:52:00,
2013-02-06 20:01:00,16.0,-2.0,30.21,West,274,10.0,18.0,44,-99.99,,,-99.99,,2013-02-07 01:01:00,
2013-02-06 20:11:00,16.0,-2.0,30.21,West,274,10.0,18.0,44,-99.99,,,-99.99,,2013-02-07 01:11:00,
2013-02-06 20:21:00,16.0,-1.0,30.21,West,274,8.0,21.0,46,-99.99,,,-99.99,,2013-02-07 01:21:00,
2013-02-06 20:32:00,16.0,-1.0,30.21,SW,234,11.0,23.0,47,-99.99,,,-99.99,,2013-02-07 01:32:00,
2013-02-06 20:42:00,16.0,-1.0,30.21,SW,234,11.0,23.0,47,-99.99,,,-99.99,,2013-02-07 01:42:00,
2013-02-06 20:52:00,16.0,0.0,30.22,NW,311,7.0,18.0,49,-99.99,,,-99.99,,2013-02-07 01:52:00,
2013-02-06 21:01:00,15.0,0.0,30.23,WNW,289,11.0,22.0,50,-99.99,,,-99.99,,2013-02-07 02:01:00,
2013-02-06 21:11:00,15.0,0.0,30.23,WNW,289,11.0,22.0,50,-99.99,,,-99.99,,2013-02-07 02:11:00,
2013-02-06 21:21:00,15.0,1.0,30.24,WSW,257,7.0,13.0,52,-99.99,,,-99.99,,2013-02-07 02:21:00,
2013-02-06 21:32:00,15.0,1.0,30.24,WSW,250,11.0,23.0,53,-99.99,,,-99.99,,2013-02-07 02:32:00,
2013-02-06 21:41:00,15.0,1.0,30.24,WSW,250,11.0,23.0,53,-99.99,,,-99.99,,2013-02-07 02:41:00,
2013-02-06 21:52:00,15.0,1.0,30.24,WSW,250,11.0,23.0,53,-99.99,,,-99.99,,2013-02-07 02:52:00,
2013-02-06 22:02:00,14.0,1.0,30.27,SW,233,12.0,20.0,56,-99.99,,,-99.99,,2013-02-07 03:02:00,
2013-02-06 22:11:00,14.0,2.0,30.27,NW,321,11.0,16.0,57,-99.99,,,-99.99,,2013-02-07 03:11:00,
2013-02-06 22:21:00,14.0,2.0,30.27,NW,321,11.0,16.0,57,-99.99,,,-99.99,,2013-02-07 03:21:00,
2013-02-06 22:31:00,14.0,2.0,30.26,WNW,289,9.0,22.0,59,-99.99,,,-99.99,,2013-02-07 03:31:00,
2013-02-06 22:42:00,14.0,2.0,30.26,WNW,289,9.0,22.0,59,-99.99,,,-99.99,,2013-02-07 03:42:00,
2013-02-06 22:52:00,13.0,2.0,30.26,NW,309,12.0,21.0,60,-99.99,,,-99.99,,2013-02-07 03:52:00,
2013-02-06 23:01:00,13.0,2.0,30.27,NNW,328,9.0,23.0,62,-99.99,,,-99.99,,2013-02-07 04:01:00,
2013-02-06 23:11:00,13.0,2.0,30.27,NNW,328,9.0,23.0,62,-99.99,,,-99.99,,2013-02-07 04:11:00,
2013-02-06 23:22:00,13.0,3.0,30.27,NW,306,12.0,20.0,63,-99.99,,,-99.99,,2013-02-07 04:22:00,
2013-02-06 23:32:00,13.0,3.0,30.27,NW,306,12.0,20.0,63,-99.99,,,-99.99,,2013-02-07 04:32:00,
2013-02-06 23:42:00,13.0,3.0,30.27,NW,306,12.0,20.0,63,-99.99,,,-99.99,,2013-02-07 04:42:00,
2013-02-06 23:53:00,12.0,3.0,30.26,NW,304,10.0,20.0,66,-99.99,,,-99.99,,2013-02-07 04:53:00,